Time,TemperatureF,DewpointF,PressureIn,WindDirection,WindDirectionDegrees,WindSpeedMPH,WindSpeedGustMPH,Humidity,HourlyPrecipIn,Conditions,Clouds,dailyrainin,SoftwareType,DateUTC
2013-02-26 00:00:00,71.9,70.1,29.81,SSW,203,4.0,8.0,94,0.00,,,0.00,VWS V14.01,2013-02-26 06:00:00,
2013-02-26 00:05:00,71.8,70.0,29.81,SE,143,2.0,6.0,94,0.00,,,0.00,VWS V14.01,2013-02-26 06:05:00,
2013-02-26 00:10:00,71.7,69.9,29.81,SE,138,2.0,6.0,94,0.00,,,0.00,VWS V14.01,2013-02-26 06:10:00,
2013-02-26 00:15:00,71.6,69.8,29.81,SSE,159,2.0,6.0,94,0.00,,,0.00,VWS V14.01,2013-02-26 06:15:00,
2013-02-26 00:20:00,71.6,69.8,29.80,SSE,162,1.0,6.0,94,0.00,,,0.00,VWS V14.01,2013-02-26 06:20:00,
2013-02-26 00:25:00,71.5,70.0,29.80,SE,137,3.0,6.0,95,0.00,,,0.00,VWS V14.01,2013-02-26 06:25:00,
2013-02-26 00:30:00,71.5,70.0,29.80,SE,135,4.0,6.0,95,0.00,,,0.00,VWS V14.01,2013-02-26 06:30:00,
2013-02-26 00:35:00,71.5,70.0,29.80,SE,136,4.0,5.0,95,0.00,,,0.00,VWS V14.01,2013-02-26 06:35:00,
2013-02-26 00:40:00,71.5,70.0,29.80,ESE,120,3.0,5.0,95,0.00,,,0.00,VWS V14.01,2013-02-26 06:40:00,
2013-02-26 00:45:00,71.4,69.9,29.80,South,187,2.0,6.0,95,0.00,,,0.00,VWS V14.01,2013-02-26 06:45:00,
2013-02-26 00:50:00,71.4,69.9,29.80,SSE,161,2.0,6.0,95,0.00,,,0.00,VWS V14.01,2013-02-26 06:50:00,
2013-02-26 00:55:00,71.5,70.3,29.80,SE,134,4.0,6.0,96,0.00,,,0.00,VWS V14.01,2013-02-26 06:55:00,
2013-02-26 01:00:00,71.5,70.3,29.80,South,171,5.0,6.0,96,0.00,,,0.00,VWS V14.01,2013-02-26 07:00:00,
2013-02-26 01:05:00,71.5,70.3,29.80,SSE,148,3.0,5.0,96,0.00,,,0.00,VWS V14.01,2013-02-26 07:05:00,
2013-02-26 01:10:00,71.5,70.3,29.80,South,181,2.0,5.0,96,0.00,,,0.00,VWS V14.01,2013-02-26 07:10:00,
2013-02-26 01:15:00,71.5,70.3,29.79,SSE,161,2.0,6.0,96,0.00,,,0.00,VWS V14.01,2013-02-26 07:15:00,
2013-02-26 01:20:00,71.5,70.3,29.79,SW,214,3.0,6.0,96,0.00,,,0.00,VWS V14.01,2013-02-26 07:20:00,
2013-02-26 01:25:00,71.5,70.3,29.79,ESE,120,2.0,6.0,96,0.00,,,0.00,VWS V14.01,2013-02-26 07:25:00,
2013-02-26 01:30:00,71.5,70.3,29.79,SSW,195,1.0,6.0,96,0.00,,,0.00,VWS V14.01,2013-02-26 07:30:00,
2013-02-26 01:35:00,71.4,70.2,29.80,SSE,157,2.0,5.0,96,0.00,,,0.00,VWS V14.01,2013-02-26 07:35:00,
2013-02-26 01:40:00,71.5,70.3,29.80,SE,134,1.0,5.0,96,0.00,,,0.00,VWS V14.01,2013-02-26 07:40:00,
2013-02-26 01:45:00,71.5,70.3,29.80,SE,145,2.0,5.0,96,0.00,,,0.00,VWS V14.01,2013-02-26 07:45:00,
2013-02-26 01:50:00,71.5,70.3,29.80,SSE,157,2.0,5.0,96,0.00,,,0.00,VWS V14.01,2013-02-26 07:50:00,
2013-02-26 01:55:00,71.5,70.3,29.80,SE,135,1.0,5.0,96,0.00,,,0.00,VWS V14.01,2013-02-26 07:55:00,
2013-02-26 02:00:00,71.6,70.4,29.80,SE,140,1.0,5.0,96,0.00,,,0.00,VWS V14.01,2013-02-26 08:00:00,
2013-02-26 02:05:00,71.6,70.4,29.79,SSW,193,1.0,3.0,96,0.00,,,0.00,VWS V14.01,2013-02-26 08:05:00,
2013-02-26 02:10:00,71.6,70.4,29.80,SSE,151,1.0,3.0,96,0.00,,,0.00,VWS V14.01,2013-02-26 08:10:00,
2013-02-26 02:15:00,71.7,70.5,29.80,SSW,194,1.0,3.0,96,0.00,,,0.00,VWS V14.01,2013-02-26 08:15:00,
2013-02-26 02:20:00,71.8,70.6,29.79,SE,143,2.0,4.0,96,0.00,,,0.00,VWS V14.01,2013-02-26 08:20:00,
2013-02-26 02:25:00,71.9,70.7,29.79,South,170,1.0,4.0,96,0.00,,,0.00,VWS V14.01,2013-02-26 08:25:00,
2013-02-26 02:30:00,71.9,70.7,29.79,SE,143,2.0,5.0,96,0.00,,,0.00,VWS V14.01,2013-02-26 08:30:00,
2013-02-26 02:35:00,72.0,70.8,29.79,SE,145,1.0,4.0,96,0.00,,,0.00,VWS V14.01,2013-02-26 08:35:00,
2013-02-26 02:40:00,72.0,70.8,29.79,SSE,162,1.0,4.0,96,0.00,,,0.00,VWS V14.01,2013-02-26 08:40:00,
2013-02-26 02:45:00,72.1,70.9,29.79,SE,145,1.0,5.0,96,0.00,,,0.00,VWS V14.01,2013-02-26 08:45:00,
2013-02-26 02:50:00,72.2,71.0,29.79,SE,127,2.0,6.0,96,0.00,,,0.00,VWS V14.01,2013-02-26 08:50:00,
2013-02-26 02:55:00,72.3,71.1,29.79,SE,135,2.0,6.0,96,0.00,,,0.00,VWS V14.01,2013-02-26 08:55:00,
2013-02-26 03:00:00,72.3,71.1,29.79,SE,134,3.0,6.0,96,0.00,,,0.00,VWS V14.01,2013-02-26 09:00:00,
2013-02-26 03:05:00,72.4,71.2,29.79,SE,134,3.0,6.0,96,0.00,,,0.00,VWS V14.01,2013-02-26 09:05:00,
2013-02-26 03:10:00,72.5,71.3,29.79,SE,136,1.0,6.0,96,0.00,,,0.00,VWS V14.01,2013-02-26 09:10:00,
2013-02-26 03:15:00,72.5,71.0,29.79,ESE,119,1.0,6.0,95,0.00,,,0.00,VWS V14.01,2013-02-26 09:15:00,
2013-02-26 03:20:00,72.5,71.0,29.79,SSE,149,3.0,6.0,95,0.00,,,0.00,VWS V14.01,2013-02-26 09:20:00,
2013-02-26 03:25:00,72.6,71.1,29.79,SE,132,3.0,7.0,95,0.00,,,0.00,VWS V14.01,2013-02-26 09:25:00,
2013-02-26 03:30:00,72.6,71.1,29.78,SE,134,5.0,8.0,95,0.00,,,0.00,VWS V14.01,2013-02-26 09:30:00,
2013-02-26 03:35:00,72.5,71.0,29.78,ESE,123,4.0,8.0,95,0.00,,,0.00,VWS V14.01,2013-02-26 09:35:00,
2013-02-26 03:40:00,72.5,71.0,29.78,ESE,118,2.0,8.0,95,0.00,,,0.00,VWS V14.01,2013-02-26 09:40:00,
2013-02-26 03:45:00,72.5,71.0,29.78,SSE,150,4.0,8.0,95,0.00,,,0.00,VWS V14.01,2013-02-26 09:45:00,
2013-02-26 03:50:00,72.5,71.0,29.78,ESE,117,5.0,8.0,95,0.00,,,0.00,VWS V14.01,2013-02-26 09:50:00,
2013-02-26 03:55:00,72.5,71.0,29.78,SSE,156,5.0,8.0,95,0.00,,,0.00,VWS V14.01,2013-02-26 09:55:00,
2013-02-26 03:59:00,72.5,71.0,29.78,ESE,107,2.0,8.0,95,0.00,,,0.00,VWS V14.01,2013-02-26 09:59:00,
2013-02-26 04:00:00,72.9,70.8,29.81,SE,138,3.0,9.0,93,0.00,,,0.00,VWS V14.01,2013-02-26 10:00:00,
2013-02-26 04:04:00,72.5,71.0,29.78,SE,138,4.0,9.0,95,0.00,,,0.00,VWS V14.01,2013-02-26 10:04:00,
2013-02-26 04:09:00,72.4,70.9,29.78,SSW,203,2.0,9.0,95,0.00,,,0.00,VWS V14.01,2013-02-26 10:09:00,
2013-02-26 04:14:00,72.4,70.9,29.78,South,181,4.0,10.0,95,0.00,,,0.00,VWS V14.01,2013-02-26 10:14:00,
2013-02-26 04:19:00,72.5,71.0,29.79,SW,222,6.0,10.0,95,0.00,,,0.00,VWS V14.01,2013-02-26 10:19:00,
2013-02-26 04:24:00,72.5,71.0,29.79,SE,138,6.0,10.0,95,0.00,,,0.00,VWS V14.01,2013-02-26 10:24:00,
2013-02-26 04:29:00,72.6,71.1,29.79,SSE,160,7.0,10.0,95,0.00,,,0.00,VWS V14.01,2013-02-26 10:29:00,
2013-02-26 04:30:00,73.2,70.7,29.82,SSE,167,3.0,8.0,92,0.00,,,0.00,VWS V14.01,2013-02-26 10:30:00,
2013-02-26 04:34:00,72.6,71.1,29.79,SSE,148,4.0,8.0,95,0.00,,,0.00,VWS V14.01,2013-02-26 10:34:00,
2013-02-26 04:39:00,72.7,71.2,29.80,SE,130,4.0,8.0,95,0.00,,,0.00,VWS V14.01,2013-02-26 10:39:00,
2013-02-26 04:44:00,72.7,70.9,29.80,SW,223,3.0,8.0,94,0.00,,,0.00,VWS V14.01,2013-02-26 10:44:00,
2013-02-26 04:49:00,72.7,70.9,29.80,ESE,123,2.0,9.0,94,0.00,,,0.00,VWS V14.01,2013-02-26 10:49:00,
2013-02-26 04:54:00,72.8,71.0,29.81,SE,145,1.0,9.0,94,0.00,,,0.00,VWS V14.01,2013-02-26 10:54:00,
2013-02-26 04:59:00,72.9,70.8,29.81,South,182,3.0,9.0,93,0.00,,,0.00,VWS V14.01,2013-02-26 10:59:00,
2013-02-26 05:00:00,73.1,70.3,29.82,SSW,205,1.0,9.0,91,0.00,,,0.00,VWS V14.01,2013-02-26 11:00:00,
2013-02-26 05:04:00,72.9,70.8,29.81,SSE,153,3.0,6.0,93,0.00,,,0.00,VWS V14.01,2013-02-26 11:04:00,
2013-02-26 05:09:00,73.0,70.9,29.81,SSW,197,2.0,6.0,93,0.00,,,0.00,VWS V14.01,2013-02-26 11:09:00,
2013-02-26 05:14:00,73.1,70.6,29.81,SE,146,2.0,6.0,92,0.00,,,0.00,VWS V14.01,2013-02-26 11:14:00,
2013-02-26 05:19:00,73.1,70.6,29.81,ESE,113,3.0,8.0,92,0.00,,,0.00,VWS V14.01,2013-02-26 11:19:00,
2013-02-26 05:24:00,73.2,70.7,29.82,South,190,0.0,8.0,92,0.00,,,0.00,VWS V14.01,2013-02-26 11:24:00,
2013-02-26 05:29:00,73.2,70.7,29.82,SE,129,4.0,8.0,92,0.00,,,0.00,VWS V14.01,2013-02-26 11:29:00,
2013-02-26 05:30:00,73.2,70.7,29.82,SSE,156,2.0,10.0,92,0.00,,,0.00,VWS V14.01,2013-02-26 11:30:00,
2013-02-26 05:34:00,73.2,70.7,29.81,SSW,205,5.0,5.0,92,0.00,,,0.00,VWS V14.01,2013-02-26 11:34:00,
2013-02-26 05:39:00,73.2,70.7,29.82,SE,134,4.0,7.0,92,0.00,,,0.00,VWS V14.01,2013-02-26 11:39:00,
2013-02-26 05:44:00,73.2,70.7,29.82,South,186,4.0,9.0,92,0.00,,,0.00,VWS V14.01,2013-02-26 11:44:00,
2013-02-26 05:49:00,73.2,70.7,29.82,SSE,148,5.0,9.0,92,0.00,,,0.00,VWS V14.01,2013-02-26 11:49:00,
2013-02-26 05:54:00,73.2,70.4,29.82,SE,127,4.0,9.0,91,0.00,,,0.00,VWS V14.01,2013-02-26 11:54:00,
2013-02-26 05:59:00,73.2,70.4,29.82,South,183,3.0,9.0,91,0.00,,,0.00,VWS V14.01,2013-02-26 11:59:00,
2013-02-26 06:00:00,74.7,71.6,29.83,SSE,158,6.0,14.0,90,0.00,,,0.00,VWS V14.01,2013-02-26 12:00:00,
2013-02-26 06:04:00,73.1,70.6,29.82,SSW,210,7.0,7.0,92,0.00,,,0.00,VWS V14.01,2013-02-26 12:04:00,
2013-02-26 06:09:00,73.1,70.6,29.82,SE,139,4.0,7.0,92,0.00,,,0.00,VWS V14.01,2013-02-26 12:09:00,
2013-02-26 06:14:00,73.1,70.6,29.82,SSE,150,2.0,10.0,92,0.00,,,0.00,VWS V14.01,2013-02-26 12:14:00,
2013-02-26 06:19:00,73.1,70.6,29.82,SSW,195,4.0,10.0,92,0.00,,,0.00,VWS V14.01,2013-02-26 12:19:00,
2013-02-26 06:24:00,73.1,70.6,29.82,South,186,5.0,10.0,92,0.00,,,0.00,VWS V14.01,2013-02-26 12:24:00,
2013-02-26 06:29:00,73.2,70.7,29.82,SE,145,4.0,10.0,92,0.00,,,0.00,VWS V14.01,2013-02-26 12:29:00,
2013-02-26 06:30:00,76.5,72.3,29.83,SE,137,14.0,16.0,87,0.00,,,0.00,VWS V14.01,2013-02-26 12:30:00,
2013-02-26 06:34:00,73.3,70.8,29.82,SE,143,6.0,8.0,92,0.00,,,0.00,VWS V14.01,2013-02-26 12:34:00,
2013-02-26 06:39:00,73.5,71.0,29.82,SSE,148,5.0,8.0,92,0.00,,,0.00,VWS V14.01,2013-02-26 12:39:00,
2013-02-26 06:44:00,73.7,70.9,29.83,SSE,148,4.0,10.0,91,0.00,,,0.00,VWS V14.01,2013-02-26 12:44:00,
2013-02-26 06:49:00,74.0,71.2,29.83,SE,136,6.0,10.0,91,0.00,,,0.00,VWS V14.01,2013-02-26 12:49:00,
2013-02-26 06:54:00,74.3,71.5,29.83,SE,134,6.0,14.0,91,0.00,,,0.00,VWS V14.01,2013-02-26 12:54:00,
2013-02-26 06:59:00,74.6,71.5,29.83,SW,217,5.0,14.0,90,0.00,,,0.00,VWS V14.01,2013-02-26 12:59:00,
2013-02-26 07:00:00,77.7,72.8,29.84,SE,146,4.0,20.0,85,0.00,,,0.00,VWS V14.01,2013-02-26 13:00:00,
2013-02-26 07:04:00,75.0,71.5,29.82,SSE,160,5.0,12.0,89,0.00,,,0.00,VWS V14.01,2013-02-26 13:04:00,
2013-02-26 07:09:00,75.4,71.9,29.83,South,183,4.0,13.0,89,0.00,,,0.00,VWS V14.01,2013-02-26 13:09:00,
2013-02-26 07:14:00,75.8,72.0,29.83,SSE,159,8.0,14.0,88,0.00,,,0.00,VWS V14.01,2013-02-26 13:14:00,
2013-02-26 07:19:00,76.1,71.9,29.83,SSE,158,11.0,16.0,87,0.00,,,0.00,VWS V14.01,2013-02-26 13:19:00,
2013-02-26 07:24:00,76.3,72.2,29.83,SE,146,11.0,16.0,87,0.00,,,0.00,VWS V14.01,2013-02-26 13:24:00,
2013-02-26 07:29:00,76.5,72.3,29.83,WSW,242,6.0,16.0,87,0.00,,,0.00,VWS V14.01,2013-02-26 13:29:00,
2013-02-26 07:30:00,79.1,72.4,29.84,South,188,10.0,19.0,80,0.00,,,0.00,VWS V14.01,2013-02-26 13:30:00,
2013-02-26 07:34:00,76.7,72.2,29.83,ESE,122,5.0,14.0,86,0.00,,,0.00,VWS V14.01,2013-02-26 13:34:00,
2013-02-26 07:39:00,76.8,72.3,29.83,SE,141,5.0,20.0,86,0.00,,,0.00,VWS V14.01,2013-02-26 13:39:00,
2013-02-26 07:44:00,77.0,72.5,29.84,SSE,168,6.0,20.0,86,0.00,,,0.00,VWS V14.01,2013-02-26 13:44:00,
2013-02-26 07:49:00,77.2,72.7,29.83,SE,134,7.0,20.0,86,0.00,,,0.00,VWS V14.01,2013-02-26 13:49:00,
2013-02-26 07:54:00,77.3,72.4,29.84,South,174,7.0,20.0,85,0.00,,,0.00,VWS V14.01,2013-02-26 13:54:00,
2013-02-26 07:59:00,77.6,72.7,29.84,SSW,192,1.0,20.0,85,0.00,,,0.00,VWS V14.01,2013-02-26 13:59:00,
2013-02-26 08:00:00,80.1,72.2,29.83,SW,218,3.0,19.0,77,0.00,,,0.00,VWS V14.01,2013-02-26 14:00:00,
2013-02-26 08:04:00,77.9,73.0,29.84,SSW,212,11.0,17.0,85,0.00,,,0.00,VWS V14.01,2013-02-26 14:04:00,
2013-02-26 08:09:00,78.1,72.9,29.84,SSE,148,14.0,19.0,84,0.00,,,0.00,VWS V14.01,2013-02-26 14:09:00,
2013-02-26 08:14:00,78.3,72.7,29.84,SSW,212,11.0,19.0,83,0.00,,,0.00,VWS V14.01,2013-02-26 14:14:00,
2013-02-26 08:19:00,78.6,72.7,29.84,SSW,212,19.0,19.0,82,0.00,,,0.00,VWS V14.01,2013-02-26 14:19:00,
2013-02-26 08:24:00,78.8,72.5,29.84,SSE,153,13.0,19.0,81,0.00,,,0.00,VWS V14.01,2013-02-26 14:24:00,
2013-02-26 08:29:00,79.0,71.9,29.84,SE,146,5.0,19.0,79,0.00,,,0.00,VWS V14.01,2013-02-26 14:29:00,
2013-02-26 08:30:00,80.9,70.2,29.83,South,179,12.0,22.0,70,0.00,,,0.00,VWS V14.01,2013-02-26 14:30:00,
2013-02-26 08:34:00,79.3,71.8,29.84,South,190,12.0,18.0,78,0.00,,,0.00,VWS V14.01,2013-02-26 14:34:00,
2013-02-26 08:39:00,79.5,72.4,29.84,SE,129,12.0,18.0,79,0.00,,,0.00,VWS V14.01,2013-02-26 14:39:00,
2013-02-26 08:44:00,79.7,72.2,29.83,SSE,150,12.0,19.0,78,0.00,,,0.00,VWS V14.01,2013-02-26 14:44:00,
2013-02-26 08:49:00,79.9,72.1,29.83,SSW,199,8.0,19.0,77,0.00,,,0.00,VWS V14.01,2013-02-26 14:49:00,
2013-02-26 08:54:00,80.1,72.2,29.83,SSW,194,12.0,19.0,77,0.00,,,0.00,VWS V14.01,2013-02-26 14:54:00,
2013-02-26 08:59:00,80.1,72.2,29.83,SSW,201,4.0,19.0,77,0.00,,,0.00,VWS V14.01,2013-02-26 14:59:00,
2013-02-26 09:00:00,81.9,68.5,29.84,SW,233,19.0,28.0,64,0.00,,,0.00,VWS V14.01,2013-02-26 15:00:00,
2013-02-26 09:04:00,80.1,71.9,29.83,SSW,198,6.0,21.0,76,0.00,,,0.00,VWS V14.01,2013-02-26 15:04:00,
2013-02-26 09:09:00,80.3,71.3,29.83,ESE,111,11.0,21.0,74,0.00,,,0.00,VWS V14.01,2013-02-26 15:09:00,
2013-02-26 09:14:00,80.3,70.5,29.83,SW,231,10.0,21.0,72,0.00,,,0.00,VWS V14.01,2013-02-26 15:14:00,
2013-02-26 09:19:00,80.4,70.6,29.82,South,169,5.0,22.0,72,0.00,,,0.00,VWS V14.01,2013-02-26 15:19:00,
2013-02-26 09:24:00,80.9,70.6,29.83,SW,235,8.0,22.0,71,0.00,,,0.00,VWS V14.01,2013-02-26 15:24:00,
2013-02-26 09:29:00,80.9,70.6,29.83,South,190,9.0,22.0,71,0.00,,,0.00,VWS V14.01,2013-02-26 15:29:00,
2013-02-26 09:30:00,83.3,69.4,29.84,SSW,211,10.0,23.0,63,0.00,,,0.00,VWS V14.01,2013-02-26 15:30:00,
2013-02-26 09:34:00,81.0,69.9,29.83,SSW,198,11.0,25.0,69,0.00,,,0.00,VWS V14.01,2013-02-26 15:34:00,
2013-02-26 09:39:00,81.6,70.9,29.83,SW,225,5.0,25.0,70,0.00,,,0.00,VWS V14.01,2013-02-26 15:39:00,
2013-02-26 09:44:00,82.3,71.1,29.83,South,186,9.0,25.0,69,0.00,,,0.00,VWS V14.01,2013-02-26 15:44:00,
2013-02-26 09:49:00,82.1,70.1,29.83,SW,218,11.0,25.0,67,0.00,,,0.00,VWS V14.01,2013-02-26 15:49:00,
2013-02-26 09:54:00,82.1,69.6,29.83,SW,224,13.0,25.0,66,0.00,,,0.00,VWS V14.01,2013-02-26 15:54:00,
2013-02-26 09:59:00,82.0,69.1,29.84,WSW,238,19.0,28.0,65,0.00,,,0.00,VWS V14.01,2013-02-26 15:59:00,
2013-02-26 10:00:00,83.2,68.8,29.83,SW,219,14.0,26.0,62,0.00,,,0.00,VWS V14.01,2013-02-26 16:00:00,
2013-02-26 10:04:00,82.0,69.1,29.84,South,187,10.0,19.0,65,0.00,,,0.00,VWS V14.01,2013-02-26 16:04:00,
2013-02-26 10:09:00,82.6,69.2,29.84,South,180,6.0,23.0,64,0.00,,,0.00,VWS V14.01,2013-02-26 16:09:00,
2013-02-26 10:14:00,83.0,69.6,29.84,SSW,198,11.0,23.0,64,0.00,,,0.00,VWS V14.01,2013-02-26 16:14:00,
2013-02-26 10:19:00,83.2,69.3,29.83,SSE,158,13.0,23.0,63,0.00,,,0.00,VWS V14.01,2013-02-26 16:19:00,
2013-02-26 10:24:00,83.2,69.3,29.83,SSE,148,10.0,23.0,63,0.00,,,0.00,VWS V14.01,2013-02-26 16:24:00,
2013-02-26 10:29:00,83.3,69.4,29.84,WSW,253,7.0,23.0,63,0.00,,,0.00,VWS V14.01,2013-02-26 16:29:00,
2013-02-26 10:30:00,82.7,68.4,29.82,SW,229,8.0,27.0,62,0.00,,,0.00,VWS V14.01,2013-02-26 16:30:00,
2013-02-26 10:34:00,83.5,69.6,29.84,East,93,19.0,19.0,63,0.00,,,0.00,VWS V14.01,2013-02-26 16:34:00,
2013-02-26 10:39:00,83.3,68.9,29.84,South,177,14.0,24.0,62,0.00,,,0.00,VWS V14.01,2013-02-26 16:39:00,
2013-02-26 10:44:00,83.1,69.2,29.84,West,267,9.0,24.0,63,0.00,,,0.00,VWS V14.01,2013-02-26 16:44:00,
2013-02-26 10:49:00,83.1,69.2,29.83,West,259,8.0,24.0,63,0.00,,,0.00,VWS V14.01,2013-02-26 16:49:00,
2013-02-26 10:54:00,83.2,69.8,29.83,SE,141,12.0,24.0,64,0.00,,,0.00,VWS V14.01,2013-02-26 16:54:00,
2013-02-26 10:59:00,83.2,68.4,29.83,South,172,10.0,26.0,61,0.00,,,0.00,VWS V14.01,2013-02-26 16:59:00,
2013-02-26 11:00:00,83.1,69.2,29.79,SW,225,8.0,23.0,63,0.00,,,0.00,VWS V14.01,2013-02-26 17:00:00,
2013-02-26 11:04:00,82.9,68.1,29.83,SSW,192,12.0,25.0,61,0.00,,,0.00,VWS V14.01,2013-02-26 17:04:00,
2013-02-26 11:09:00,82.7,68.8,29.84,SW,219,9.0,27.0,63,0.00,,,0.00,VWS V14.01,2013-02-26 17:09:00,
2013-02-26 11:14:00,82.5,68.2,29.84,SW,219,15.0,27.0,62,0.00,,,0.00,VWS V14.01,2013-02-26 17:14:00,
2013-02-26 11:19:00,82.6,68.3,29.83,SSW,202,5.0,27.0,62,0.00,,,0.00,VWS V14.01,2013-02-26 17:19:00,
2013-02-26 11:24:00,82.7,68.4,29.82,SW,215,11.0,27.0,62,0.00,,,0.00,VWS V14.01,2013-02-26 17:24:00,
2013-02-26 11:29:00,82.7,68.4,29.82,WSW,240,12.0,27.0,62,0.00,,,0.00,VWS V14.01,2013-02-26 17:29:00,
2013-02-26 11:30:00,83.3,69.9,29.76,SSE,165,6.0,23.0,64,0.00,,,0.00,VWS V14.01,2013-02-26 17:30:00,
2013-02-26 11:34:00,82.8,68.9,29.81,South,187,13.0,22.0,63,0.00,,,0.00,VWS V14.01,2013-02-26 17:34:00,
2013-02-26 11:39:00,82.8,68.9,29.81,SSW,198,7.0,23.0,63,0.00,,,0.00,VWS V14.01,2013-02-26 17:39:00,
2013-02-26 11:44:00,82.9,69.0,29.81,SW,233,7.0,23.0,63,0.00,,,0.00,VWS V14.01,2013-02-26 17:44:00,
2013-02-26 11:49:00,83.0,69.1,29.81,West,273,12.0,23.0,63,0.00,,,0.00,VWS V14.01,2013-02-26 17:49:00,
2013-02-26 11:54:00,83.0,69.1,29.80,SSW,205,3.0,23.0,63,0.00,,,0.00,VWS V14.01,2013-02-26 17:54:00,
2013-02-26 11:59:00,83.2,69.3,29.79,SW,214,9.0,23.0,63,0.00,,,0.00,VWS V14.01,2013-02-26 17:59:00,
2013-02-26 12:00:00,84.8,70.8,29.76,South,177,11.0,32.0,63,0.00,,,0.00,VWS V14.01,2013-02-26 18:00:00,
2013-02-26 12:04:00,83.1,69.2,29.79,SW,231,9.0,21.0,63,0.00,,,0.00,VWS V14.01,2013-02-26 18:04:00,
2013-02-26 12:09:00,83.1,69.7,29.77,SW,233,7.0,21.0,64,0.00,,,0.00,VWS V14.01,2013-02-26 18:09:00,
2013-02-26 12:14:00,83.2,69.8,29.77,SW,219,14.0,21.0,64,0.00,,,0.00,VWS V14.01,2013-02-26 18:14:00,
2013-02-26 12:19:00,83.2,69.8,29.77,South,173,11.0,23.0,64,0.00,,,0.00,VWS V14.01,2013-02-26 18:19:00,
2013-02-26 12:24:00,83.1,69.7,29.77,SSW,211,8.0,23.0,64,0.00,,,0.00,VWS V14.01,2013-02-26 18:24:00,
2013-02-26 12:29:00,83.3,69.9,29.76,SSW,194,16.0,23.0,64,0.00,,,0.00,VWS V14.01,2013-02-26 18:29:00,
2013-02-26 12:30:00,84.1,70.2,29.76,West,259,12.0,26.0,63,0.00,,,0.00,VWS V14.01,2013-02-26 18:30:00,
2013-02-26 12:34:00,83.7,69.8,29.76,SW,229,11.0,26.0,63,0.00,,,0.00,VWS V14.01,2013-02-26 18:34:00,
2013-02-26 12:39:00,84.1,70.2,29.76,South,188,13.0,26.0,63,0.00,,,0.00,VWS V14.01,2013-02-26 18:39:00,
2013-02-26 12:44:00,84.6,70.6,29.76,SSW,207,30.0,30.0,63,0.00,,,0.00,VWS V14.01,2013-02-26 18:44:00,
2013-02-26 12:49:00,84.3,70.3,29.76,SSW,197,8.0,32.0,63,0.00,,,0.00,VWS V14.01,2013-02-26 18:49:00,
2013-02-26 12:54:00,84.9,70.9,29.77,WSW,248,15.0,32.0,63,0.00,,,0.00,VWS V14.01,2013-02-26 18:54:00,
2013-02-26 12:59:00,84.8,70.3,29.76,SW,222,6.0,32.0,62,0.00,,,0.00,VWS V14.01,2013-02-26 18:59:00,
2013-02-26 13:00:00,83.7,69.8,29.76,SSW,208,9.0,28.0,63,0.00,,,0.00,VWS V14.01,2013-02-26 19:00:00,
2013-02-26 13:04:00,84.8,69.9,29.77,South,180,6.0,25.0,61,0.00,,,0.00,VWS V14.01,2013-02-26 19:04:00,
2013-02-26 13:09:00,84.6,70.2,29.77,WSW,240,9.0,25.0,62,0.00,,,0.00,VWS V14.01,2013-02-26 19:09:00,
2013-02-26 13:14:00,84.3,69.9,29.76,WSW,240,9.0,25.0,62,0.00,,,0.00,VWS V14.01,2013-02-26 19:14:00,
2013-02-26 13:19:00,84.2,70.2,29.76,SW,218,7.0,26.0,63,0.00,,,0.00,VWS V14.01,2013-02-26 19:19:00,
2013-02-26 13:24:00,84.2,70.2,29.76,SSW,204,12.0,26.0,63,0.00,,,0.00,VWS V14.01,2013-02-26 19:24:00,
2013-02-26 13:29:00,84.1,70.2,29.76,SW,226,10.0,26.0,63,0.00,,,0.00,VWS V14.01,2013-02-26 19:29:00,
2013-02-26 13:30:00,83.4,70.4,29.76,SE,138,7.0,24.0,65,0.00,,,0.00,VWS V14.01,2013-02-26 19:30:00,
2013-02-26 13:34:00,83.9,69.5,29.77,SSE,158,5.0,28.0,62,0.00,,,0.00,VWS V14.01,2013-02-26 19:34:00,
2013-02-26 13:39:00,83.7,69.3,29.76,SSW,195,15.0,28.0,62,0.00,,,0.00,VWS V14.01,2013-02-26 19:39:00,
2013-02-26 13:44:00,83.6,69.7,29.76,WSW,240,8.0,28.0,63,0.00,,,0.00,VWS V14.01,2013-02-26 19:44:00,
2013-02-26 13:49:00,83.6,69.7,29.76,West,271,3.0,28.0,63,0.00,,,0.00,VWS V14.01,2013-02-26 19:49:00,
2013-02-26 13:54:00,83.7,69.8,29.76,SSW,200,9.0,28.0,63,0.00,,,0.00,VWS V14.01,2013-02-26 19:54:00,
2013-02-26 13:59:00,83.7,69.8,29.76,South,175,6.0,28.0,63,0.00,,,0.00,VWS V14.01,2013-02-26 19:59:00,
2013-02-26 14:00:00,83.4,70.4,29.76,SW,214,6.0,21.0,65,0.00,,,0.00,VWS V14.01,2013-02-26 20:00:00,
2013-02-26 14:04:00,83.6,70.1,29.76,South,184,8.0,18.0,64,0.00,,,0.00,VWS V14.01,2013-02-26 20:04:00,
2013-02-26 14:09:00,83.6,69.7,29.76,SSW,199,8.0,21.0,63,0.00,,,0.00,VWS V14.01,2013-02-26 20:09:00,
2013-02-26 14:14:00,83.5,70.1,29.76,SW,217,10.0,21.0,64,0.00,,,0.00,VWS V14.01,2013-02-26 20:14:00,
2013-02-26 14:19:00,83.4,70.4,29.76,SSW,206,7.0,21.0,65,0.00,,,0.00,VWS V14.01,2013-02-26 20:19:00,
2013-02-26 14:24:00,83.4,69.9,29.76,SW,225,7.0,24.0,64,0.00,,,0.00,VWS V14.01,2013-02-26 20:24:00,
2013-02-26 14:29:00,83.4,70.4,29.76,SW,232,14.0,24.0,65,0.00,,,0.00,VWS V14.01,2013-02-26 20:29:00,
2013-02-26 14:30:00,83.1,70.6,29.77,SW,218,4.0,22.0,66,0.00,,,0.00,VWS V14.01,2013-02-26 20:30:00,
2013-02-26 14:34:00,83.2,70.2,29.76,SSW,206,12.0,21.0,65,0.00,,,0.00,VWS V14.01,2013-02-26 20:34:00,
2013-02-26 14:39:00,83.2,70.7,29.76,SW,229,11.0,21.0,66,0.00,,,0.00,VWS V14.01,2013-02-26 20:39:00,
2013-02-26 14:44:00,83.4,70.9,29.76,West,260,4.0,21.0,66,0.00,,,0.00,VWS V14.01,2013-02-26 20:44:00,
2013-02-26 14:49:00,83.6,71.1,29.76,SW,218,8.0,21.0,66,0.00,,,0.00,VWS V14.01,2013-02-26 20:49:00,
2013-02-26 14:54:00,83.5,70.5,29.76,SW,217,6.0,21.0,65,0.00,,,0.00,VWS V14.01,2013-02-26 20:54:00,
2013-02-26 14:59:00,83.4,70.4,29.76,WSW,255,9.0,21.0,65,0.00,,,0.00,VWS V14.01,2013-02-26 20:59:00,
2013-02-26 15:00:00,80.0,70.6,29.78,WSW,240,6.0,18.0,73,0.00,,,0.00,VWS V14.01,2013-02-26 21:00:00,
2013-02-26 15:04:00,83.3,70.3,29.77,SSW,203,8.0,20.0,65,0.00,,,0.00,VWS V14.01,2013-02-26 21:04:00,
2013-02-26 15:09:00,83.2,70.7,29.77,SW,224,5.0,20.0,66,0.00,,,0.00,VWS V14.01,2013-02-26 21:09:00,
2013-02-26 15:14:00,83.2,70.7,29.77,SSW,203,18.0,20.0,66,0.00,,,0.00,VWS V14.01,2013-02-26 21:14:00,
2013-02-26 15:19:00,83.2,70.7,29.77,SW,225,9.0,22.0,66,0.00,,,0.00,VWS V14.01,2013-02-26 21:19:00,
2013-02-26 15:24:00,83.2,70.7,29.77,WSW,256,7.0,22.0,66,0.00,,,0.00,VWS V14.01,2013-02-26 21:24:00,
2013-02-26 15:29:00,83.1,70.6,29.77,SW,224,6.0,22.0,66,0.00,,,0.00,VWS V14.01,2013-02-26 21:29:00,
2013-02-26 15:30:00,79.9,69.2,29.78,WSW,243,9.0,18.0,70,0.00,,,0.00,VWS V14.01,2013-02-26 21:30:00,
2013-02-26 15:34:00,82.8,70.3,29.78,SW,214,10.0,18.0,66,0.00,,,0.00,VWS V14.01,2013-02-26 21:34:00,
2013-02-26 15:39:00,82.0,70.4,29.78,SW,218,10.0,18.0,68,0.00,,,0.00,VWS V14.01,2013-02-26 21:39:00,
2013-02-26 15:44:00,80.9,70.2,29.78,SW,228,8.0,18.0,70,0.00,,,0.00,VWS V14.01,2013-02-26 21:44:00,
2013-02-26 15:49:00,80.2,69.9,29.78,WSW,246,5.0,18.0,71,0.00,,,0.00,VWS V14.01,2013-02-26 21:49:00,
2013-02-26 15:54:00,80.0,70.6,29.78,WSW,243,5.0,18.0,73,0.00,,,0.00,VWS V14.01,2013-02-26 21:54:00,
2013-02-26 15:59:00,80.0,70.6,29.78,West,262,7.0,18.0,73,0.00,,,0.00,VWS V14.01,2013-02-26 21:59:00,
2013-02-26 16:00:00,79.7,69.5,29.78,WSW,242,8.0,12.0,71,0.00,,,0.00,VWS V14.01,2013-02-26 22:00:00,
2013-02-26 16:04:00,80.0,70.6,29.78,SW,219,7.0,13.0,73,0.00,,,0.00,VWS V14.01,2013-02-26 22:04:00,
2013-02-26 16:09:00,80.2,70.4,29.78,West,275,9.0,18.0,72,0.00,,,0.00,VWS V14.01,2013-02-26 22:09:00,
2013-02-26 16:14:00,80.1,69.9,29.78,SW,236,7.0,18.0,71,0.00,,,0.00,VWS V14.01,2013-02-26 22:14:00,
2013-02-26 16:19:00,80.0,69.8,29.78,WSW,253,8.0,18.0,71,0.00,,,0.00,VWS V14.01,2013-02-26 22:19:00,
2013-02-26 16:24:00,79.9,69.7,29.78,WSW,256,11.0,18.0,71,0.00,,,0.00,VWS V14.01,2013-02-26 22:24:00,
2013-02-26 16:29:00,79.9,69.2,29.78,WSW,253,8.0,18.0,70,0.00,,,0.00,VWS V14.01,2013-02-26 22:29:00,
2013-02-26 16:30:00,79.4,69.2,29.79,SSW,193,3.0,12.0,71,0.00,,,0.00,VWS V14.01,2013-02-26 22:30:00,
2013-02-26 16:34:00,79.9,69.2,29.78,West,259,10.0,11.0,70,0.00,,,0.00,VWS V14.01,2013-02-26 22:34:00,
2013-02-26 16:39:00,79.8,69.2,29.78,WSW,256,8.0,12.0,70,0.00,,,0.00,VWS V14.01,2013-02-26 22:39:00,
2013-02-26 16:44:00,79.8,69.2,29.78,SW,225,4.0,12.0,70,0.00,,,0.00,VWS V14.01,2013-02-26 22:44:00,
2013-02-26 16:49:00,79.8,69.2,29.78,SW,229,8.0,12.0,70,0.00,,,0.00,VWS V14.01,2013-02-26 22:49:00,
2013-02-26 16:54:00,79.8,69.2,29.78,WSW,249,7.0,12.0,70,0.00,,,0.00,VWS V14.01,2013-02-26 22:54:00,
2013-02-26 16:59:00,79.7,69.1,29.78,West,270,4.0,12.0,70,0.00,,,0.00,VWS V14.01,2013-02-26 22:59:00,
2013-02-26 17:00:00,79.1,68.9,29.80,SW,219,4.0,13.0,71,0.00,,,0.00,VWS V14.01,2013-02-26 23:00:00,
2013-02-26 17:04:00,79.7,69.1,29.78,WSW,246,9.0,10.0,70,0.00,,,0.00,VWS V14.01,2013-02-26 23:04:00,
2013-02-26 17:09:00,79.7,69.1,29.78,WSW,256,6.0,10.0,70,0.00,,,0.00,VWS V14.01,2013-02-26 23:09:00,
2013-02-26 17:14:00,79.6,69.0,29.79,WSW,238,6.0,11.0,70,0.00,,,0.00,VWS V14.01,2013-02-26 23:14:00,
2013-02-26 17:19:00,79.6,69.0,29.79,SW,236,5.0,12.0,70,0.00,,,0.00,VWS V14.01,2013-02-26 23:19:00,
2013-02-26 17:24:00,79.5,68.9,29.79,SW,219,4.0,12.0,70,0.00,,,0.00,VWS V14.01,2013-02-26 23:24:00,
2013-02-26 17:29:00,79.4,69.2,29.79,SW,225,10.0,12.0,71,0.00,,,0.00,VWS V14.01,2013-02-26 23:29:00,
2013-02-26 17:30:00,78.6,69.6,29.81,SW,219,4.0,14.0,74,0.00,,,0.00,VWS V14.01,2013-02-26 23:30:00,
2013-02-26 17:34:00,79.2,69.0,29.80,SW,231,3.0,8.0,71,0.00,,,0.00,VWS V14.01,2013-02-26 23:34:00,
2013-02-26 17:39:00,79.1,69.3,29.79,WSW,246,2.0,10.0,72,0.00,,,0.00,VWS V14.01,2013-02-26 23:39:00,
2013-02-26 17:44:00,79.0,69.2,29.79,SW,219,5.0,10.0,72,0.00,,,0.00,VWS V14.01,2013-02-26 23:44:00,
2013-02-26 17:49:00,78.9,69.1,29.80,WSW,248,5.0,11.0,72,0.00,,,0.00,VWS V14.01,2013-02-26 23:49:00,
2013-02-26 17:54:00,79.0,68.8,29.80,SW,225,6.0,13.0,71,0.00,,,0.00,VWS V14.01,2013-02-26 23:54:00,
2013-02-26 17:59:00,79.1,68.9,29.80,SW,232,4.0,13.0,71,0.00,,,0.00,VWS V14.01,2013-02-26 23:59:00,
2013-02-26 18:00:00,77.9,70.1,29.82,WSW,245,5.0,16.0,77,0.00,,,0.00,VWS V14.01,2013-02-27 00:00:00,
2013-02-26 18:04:00,79.1,68.9,29.80,SW,224,5.0,9.0,71,0.00,,,0.00,VWS V14.01,2013-02-27 00:04:00,
2013-02-26 18:09:00,79.1,68.9,29.80,SSW,210,7.0,12.0,71,0.00,,,0.00,VWS V14.01,2013-02-27 00:09:00,
2013-02-26 18:14:00,79.0,69.2,29.80,SSE,162,9.0,12.0,72,0.00,,,0.00,VWS V14.01,2013-02-27 00:14:00,
2013-02-26 18:19:00,79.0,69.2,29.80,WSW,248,9.0,14.0,72,0.00,,,0.00,VWS V14.01,2013-02-27 00:19:00,
2013-02-26 18:24:00,78.8,69.4,29.81,SW,235,7.0,14.0,73,0.00,,,0.00,VWS V14.01,2013-02-27 00:24:00,
2013-02-26 18:29:00,78.6,69.6,29.81,SW,226,5.0,14.0,74,0.00,,,0.00,VWS V14.01,2013-02-27 00:29:00,
2013-02-26 18:30:00,77.0,70.7,29.83,SW,232,5.0,12.0,81,0.00,,,0.00,VWS V14.01,2013-02-27 00:30:00,
2013-02-26 18:34:00,78.6,69.6,29.81,West,259,3.0,11.0,74,0.00,,,0.00,VWS V14.01,2013-02-27 00:34:00,
2013-02-26 18:39:00,78.5,69.9,29.81,WSW,239,7.0,16.0,75,0.00,,,0.00,VWS V14.01,2013-02-27 00:39:00,
2013-02-26 18:44:00,78.4,69.8,29.81,WSW,240,7.0,16.0,75,0.00,,,0.00,VWS V14.01,2013-02-27 00:44:00,
2013-02-26 18:49:00,78.3,70.1,29.81,SW,225,1.0,16.0,76,0.00,,,0.00,VWS V14.01,2013-02-27 00:49:00,
2013-02-26 18:54:00,78.1,69.9,29.81,SW,215,3.0,16.0,76,0.00,,,0.00,VWS V14.01,2013-02-27 00:54:00,
2013-02-26 18:59:00,78.0,70.2,29.82,WSW,243,7.0,16.0,77,0.00,,,0.00,VWS V14.01,2013-02-27 00:59:00,
2013-02-26 19:00:00,76.4,71.2,29.84,SSW,201,4.0,16.0,84,0.00,,,0.00,VWS V14.01,2013-02-27 01:00:00,
2013-02-26 19:04:00,77.9,70.1,29.82,West,266,3.0,9.0,77,0.00,,,0.00,VWS V14.01,2013-02-27 01:04:00,
2013-02-26 19:09:00,77.7,70.3,29.82,WSW,253,6.0,9.0,78,0.00,,,0.00,VWS V14.01,2013-02-27 01:09:00,
2013-02-26 19:14:00,77.3,70.3,29.82,West,259,4.0,9.0,79,0.00,,,0.00,VWS V14.01,2013-02-27 01:14:00,
2013-02-26 19:19:00,77.0,70.4,29.82,WSW,255,7.0,10.0,80,0.00,,,0.00,VWS V14.01,2013-02-27 01:19:00,
2013-02-26 19:24:00,77.0,70.4,29.83,SW,225,7.0,11.0,80,0.00,,,0.00,VWS V14.01,2013-02-27 01:24:00,
2013-02-26 19:29:00,77.0,70.7,29.83,SSW,212,4.0,12.0,81,0.00,,,0.00,VWS V14.01,2013-02-27 01:29:00,
2013-02-26 19:30:00,74.5,71.4,29.85,WSW,249,4.0,13.0,90,0.00,,,0.00,VWS V14.01,2013-02-27 01:30:00,
2013-02-26 19:34:00,77.0,70.7,29.83,SSW,197,4.0,10.0,81,0.00,,,0.00,VWS V14.01,2013-02-27 01:34:00,
2013-02-26 19:39:00,77.0,71.1,29.83,SW,229,7.0,16.0,82,0.00,,,0.00,VWS V14.01,2013-02-27 01:39:00,
2013-02-26 19:44:00,76.9,71.0,29.83,WSW,248,11.0,16.0,82,0.00,,,0.00,VWS V14.01,2013-02-27 01:44:00,
2013-02-26 19:49:00,76.7,71.2,29.84,West,275,3.0,16.0,83,0.00,,,0.00,VWS V14.01,2013-02-27 01:49:00,
2013-02-26 19:54:00,76.5,71.0,29.84,SW,219,8.0,16.0,83,0.00,,,0.00,VWS V14.01,2013-02-27 01:54:00,
2013-02-26 19:59:00,76.4,71.2,29.84,WSW,250,7.0,16.0,84,0.00,,,0.00,VWS V14.01,2013-02-27 01:59:00,
2013-02-26 20:00:00,73.8,71.3,29.85,West,264,6.0,11.0,92,0.00,,,0.00,VWS V14.01,2013-02-27 02:00:00,
2013-02-26 20:04:00,76.2,71.0,29.84,SW,232,5.0,12.0,84,0.00,,,0.00,VWS V14.01,2013-02-27 02:04:00,
2013-02-26 20:09:00,76.2,71.4,29.85,SW,223,8.0,12.0,85,0.00,,,0.00,VWS V14.01,2013-02-27 02:09:00,
2013-02-26 20:14:00,75.8,71.3,29.84,West,268,9.0,12.0,86,0.00,,,0.00,VWS V14.01,2013-02-27 02:14:00,
2013-02-26 20:19:00,75.1,71.3,29.84,SW,232,5.0,13.0,88,0.00,,,0.00,VWS V14.01,2013-02-27 02:19:00,
2013-02-26 20:24:00,74.8,71.3,29.85,WSW,257,3.0,13.0,89,0.00,,,0.00,VWS V14.01,2013-02-27 02:24:00,
2013-02-26 20:29:00,74.5,71.4,29.85,WSW,250,3.0,13.0,90,0.00,,,0.00,VWS V14.01,2013-02-27 02:29:00,
2013-02-26 20:30:00,72.7,69.3,29.86,SW,228,4.0,12.0,89,0.00,,,0.00,VWS V14.01,2013-02-27 02:30:00,
2013-02-26 20:34:00,74.4,71.3,29.85,WSW,249,8.0,9.0,90,0.00,,,0.00,VWS V14.01,2013-02-27 02:34:00,
2013-02-26 20:39:00,74.2,71.4,29.85,WSW,248,5.0,11.0,91,0.00,,,0.00,VWS V14.01,2013-02-27 02:39:00,
2013-02-26 20:44:00,74.1,71.3,29.86,WSW,241,8.0,11.0,91,0.00,,,0.00,VWS V14.01,2013-02-27 02:44:00,
2013-02-26 20:49:00,74.0,71.5,29.86,SW,236,5.0,11.0,92,0.00,,,0.00,VWS V14.01,2013-02-27 02:49:00,
2013-02-26 20:54:00,73.9,71.4,29.86,WSW,238,5.0,11.0,92,0.00,,,0.00,VWS V14.01,2013-02-27 02:54:00,
2013-02-26 20:59:00,73.8,71.3,29.85,WSW,252,10.0,11.0,92,0.00,,,0.00,VWS V14.01,2013-02-27 02:59:00,
2013-02-26 21:00:00,71.7,68.6,29.86,West,263,5.0,11.0,90,0.00,,,0.00,VWS V14.01,2013-02-27 03:00:00,
2013-02-26 21:04:00,73.8,71.7,29.86,SW,235,5.0,12.0,93,0.00,,,0.00,VWS V14.01,2013-02-27 03:04:00,
2013-02-26 21:09:00,73.6,71.5,29.85,WSW,243,5.0,12.0,93,0.00,,,0.00,VWS V14.01,2013-02-27 03:09:00,
2013-02-26 21:14:00,73.2,70.4,29.85,WSW,246,8.0,12.0,91,0.00,,,0.00,VWS V14.01,2013-02-27 03:14:00,
2013-02-26 21:19:00,72.9,69.5,29.85,SW,229,9.0,12.0,89,0.00,,,0.00,VWS V14.01,2013-02-27 03:19:00,
2013-02-26 21:24:00,72.9,69.5,29.85,South,176,7.0,12.0,89,0.00,,,0.00,VWS V14.01,2013-02-27 03:24:00,
2013-02-26 21:29:00,72.7,69.3,29.86,SW,222,9.0,12.0,89,0.00,,,0.00,VWS V14.01,2013-02-27 03:29:00,
2013-02-26 21:30:00,70.9,67.8,29.86,WSW,257,5.0,9.0,90,0.00,,,0.00,VWS V14.01,2013-02-27 03:30:00,
2013-02-26 21:34:00,72.6,69.2,29.86,WSW,245,6.0,11.0,89,0.00,,,0.00,VWS V14.01,2013-02-27 03:34:00,
2013-02-26 21:39:00,72.4,69.0,29.86,WSW,242,4.0,11.0,89,0.00,,,0.00,VWS V14.01,2013-02-27 03:39:00,
2013-02-26 21:44:00,72.3,69.2,29.86,WSW,252,6.0,11.0,90,0.00,,,0.00,VWS V14.01,2013-02-27 03:44:00,
2013-02-26 21:49:00,72.1,69.0,29.86,WSW,245,9.0,11.0,90,0.00,,,0.00,VWS V14.01,2013-02-27 03:49:00,
2013-02-26 21:54:00,71.9,68.8,29.86,SSW,205,5.0,11.0,90,0.00,,,0.00,VWS V14.01,2013-02-27 03:54:00,
2013-02-26 21:59:00,71.7,68.6,29.86,WSW,242,4.0,11.0,90,0.00,,,0.00,VWS V14.01,2013-02-27 03:59:00,
2013-02-26 22:00:00,70.6,67.5,29.86,WSW,257,5.0,10.0,90,0.00,,,0.00,VWS V14.01,2013-02-27 04:00:00,
2013-02-26 22:04:00,71.6,68.5,29.86,WSW,248,5.0,7.0,90,0.00,,,0.00,VWS V14.01,2013-02-27 04:04:00,
2013-02-26 22:09:00,71.4,68.3,29.86,WSW,242,4.0,8.0,90,0.00,,,0.00,VWS V14.01,2013-02-27 04:09:00,
2013-02-26 22:14:00,71.4,68.3,29.86,SW,225,5.0,8.0,90,0.00,,,0.00,VWS V14.01,2013-02-27 04:14:00,
2013-02-26 22:19:00,71.2,68.1,29.86,SW,214,3.0,8.0,90,0.00,,,0.00,VWS V14.01,2013-02-27 04:19:00,
2013-02-26 22:24:00,71.1,68.0,29.86,WSW,248,5.0,8.0,90,0.00,,,0.00,VWS V14.01,2013-02-27 04:24:00,
2013-02-26 22:29:00,70.9,67.8,29.86,WSW,238,7.0,9.0,90,0.00,,,0.00,VWS V14.01,2013-02-27 04:29:00,
2013-02-26 22:30:00,70.1,67.0,29.87,WSW,255,7.0,11.0,90,0.00,,,0.00,VWS V14.01,2013-02-27 04:30:00,
2013-02-26 22:34:00,70.8,67.7,29.86,WSW,249,10.0,10.0,90,0.00,,,0.00,VWS V14.01,2013-02-27 04:34:00,
2013-02-26 22:39:00,70.7,67.6,29.86,WSW,238,5.0,10.0,90,0.00,,,0.00,VWS V14.01,2013-02-27 04:39:00,
2013-02-26 22:44:00,70.7,67.6,29.86,WSW,253,3.0,10.0,90,0.00,,,0.00,VWS V14.01,2013-02-27 04:44:00,
2013-02-26 22:49:00,70.7,67.6,29.86,SW,236,5.0,10.0,90,0.00,,,0.00,VWS V14.01,2013-02-27 04:49:00,
2013-02-26 22:54:00,70.7,67.6,29.86,SW,225,3.0,10.0,90,0.00,,,0.00,VWS V14.01,2013-02-27 04:54:00,
2013-02-26 22:59:00,70.6,67.5,29.86,WSW,256,9.0,10.0,90,0.00,,,0.00,VWS V14.01,2013-02-27 04:59:00,
2013-02-26 23:00:00,70.6,67.5,29.86,West,259,7.0,10.0,90,0.00,,,0.00,VWS V14.01,2013-02-27 05:00:00,
2013-02-26 23:05:00,70.6,67.5,29.86,WSW,255,6.0,9.0,90,0.00,,,0.00,VWS V14.01,2013-02-27 05:05:00,
2013-02-26 23:10:00,70.5,67.4,29.86,WSW,242,5.0,10.0,90,0.00,,,0.00,VWS V14.01,2013-02-27 05:10:00,
2013-02-26 23:15:00,70.4,67.3,29.87,West,266,3.0,10.0,90,0.00,,,0.00,VWS V14.01,2013-02-27 05:15:00,
2013-02-26 23:20:00,70.3,67.2,29.87,West,263,6.0,10.0,90,0.00,,,0.00,VWS V14.01,2013-02-27 05:20:00,
2013-02-26 23:25:00,70.2,67.1,29.86,WSW,243,8.0,11.0,90,0.00,,,0.00,VWS V14.01,2013-02-27 05:25:00,
2013-02-26 23:30:00,70.2,67.1,29.87,West,275,7.0,7.0,90,0.00,,,0.00,VWS V14.01,2013-02-27 05:30:00,
2013-02-26 23:35:00,70.1,67.0,29.87,SW,235,4.0,11.0,90,0.00,,,0.00,VWS V14.01,2013-02-27 05:35:00,
2013-02-26 23:40:00,69.9,66.5,29.87,WSW,241,8.0,11.0,89,0.00,,,0.00,VWS V14.01,2013-02-27 05:40:00,
2013-02-26 23:45:00,69.8,66.1,29.87,West,279,4.0,11.0,88,0.00,,,0.00,VWS V14.01,2013-02-27 05:45:00,
2013-02-26 23:50:00,69.7,66.0,29.87,West,274,5.0,11.0,88,0.00,,,0.00,VWS V14.01,2013-02-27 05:50:00,
2013-02-26 23:55:00,69.7,65.7,29.87,WSW,243,4.0,11.0,87,0.00,,,0.00,VWS V14.01,2013-02-27 05:55:00,